Regional Weather Roundup
Issued by NWS New Orleans/Baton Rouge, LA

Current Version | Previous Version | Text Only | Print | Product List | Glossary On
Versions: 1 2 3 4 5 6 7 8 9 10 11 12 13 14 15 16 17 18 19 20 21 22 23 24 25 26 27 28 29 30 31 32 33 34 35 36 37 38 39 40 41 42 43 44 45 46 47 48 49 50
000
ASUS44 KLIX 312110
RWRLIX
NEW ORLEANS REGIONAL WEATHER ROUNDUP
NATIONAL WEATHER SERVICE NEW ORLEANS LA
300 PM CST SAT JAN 31 2015

NOTE: "FAIR" INDICATES FEW OR NO CLOUDS BELOW 12,000 FEET WITH NO
      SIGNIFICANT WEATHER AND/OR OBSTRUCTIONS TO VISIBILITY.
      SKY/WX - SKY CONDITION AND SIGNIFICANT WEATHER.
      TMP - AIR TEMPERATURE.     DP    - DEWPOINT TEMPERATURE.
      RH  - RELATIVE HUMIDITY.   PRES  - PRESSURE.
      HI  - HEAT INDEX.          WCI   - WIND CHILL INDEX.

*  THESE STATIONS ARE NOT NWS OR FAA STATIONS AND ARE NOT UNDER
   NWS QUALITY CONTROL.

LAZ038-040-048-061>063-065>067-069-312200-
SOUTHEAST LOUISIANA

CITY           SKY/WX    TMP DP  RH WIND       PRES   REMARKS
N.O. AUDUBON     N/A     60  51  71 MISG        N/A
N.O. INTL ARPT CLOUDY    58  47  66 E9        30.20F
N.O. LAKEFRONT CLOUDY    60  47  61 E14       30.21F
N.O. DOWNTOWN* NOT AVBL
SLIDELL        PTSUNNY   62  47  57 E8        30.21F
BATON ROUGE    CLOUDY    60  44  55 E12       30.18F
BOOTHVILLE     SUNNY     65  51  60 E14       30.19F
BELLE CHASSE   CLOUDY    63  48  58 E13       30.19F
BOGALUSA*        N/A     65  41  41 E7        30.22F
GALLIANO*      CLOUDY    67  51  56 MISG      30.18F
NEW ROADS*       N/A     62  43  51 E8        30.18F
GONZALES*        N/A     59  46  61 NE7       30.18F
HAMMOND*       CLOUDY    64  46  52 SE13G18   30.22F
HOUMA*         NOT AVBL
PORT FOURCHON* CLEAR     64  55  72 E15       30.19F

$$

MSZ070-080>082-312200-
SOUTHERN MISSISSIPPI

CITY           SKY/WX    TMP DP  RH WIND       PRES   REMARKS
MCCOMB         CLOUDY    60  34  37 S7        30.20F
GULFPORT       MOSUNNY   58  45  62 E16       30.22F
BILOXI         SUNNY     59  45  59 SE14      30.23F
PASCAGOULA     SUNNY     60  43  53 SE14      30.24F
STENNIS ARPT*  SUNNY     57  43  58 SE9G16    30.23F

$$

COASTAL OBSERVATIONS
LAKE AND NEARSHORE STATIONS

STATION/POSITION TIME  TEMP    WIND        PRES    WAVE
                       AIR SEA DIR/SP/G            HT/PER
                 (UTC) (F)     (DEG/KT/KT) (MB)    (FT/S)
PASCAGOULA       2100   58     110/ 13/ 17 1023.4
WAVELAND YACHT   2100   55     110/ 13/ 16 1022.5
GRAND ISLE       2100   64 61  100/ 10/ 15 1022.3
SOUTHWEST PASS   2100   70 47  110/ 18/ 20 1021.8
NEW CANAL        2100   57 56   80/  9/ 12 1023.1
SHELL BEACH      2100   58 57   90/ 12/ 17 1022.6

OFFSHORE STATIONS

STATION/POSITION TIME  TEMP    WIND        PRES    WAVE
                       AIR SEA DIR/SP/G            HT/PER
                 (UTC) (F)     (DEG/KT/KT) (MB)    (FT/S)
64 S DAUPHIN ISL 2017   62 69  110/ 16/ 19 1023.1    4/ 6

$$



USA.gov is the U.S. government's official web portal to all federal, state and local government web resources and services.